Satellite: AAUSAT2
Catalog number: 32788
Epoch time:      08163.57597459
Element set:    0067
Inclination:      097.9899 deg
RA of node:       223.4948 deg
Eccentricity:    0.0016157
Arg of perigee:   151.0195 deg
Mean anomaly:     209.1925 deg
Mean motion:   14.81526884 rev/day
Decay rate:       1.84e-06 rev/day^2
Epoch rev:           00657
Checksum:              352

Satellite: DO-64
Catalog number: 32789
Epoch time:      08164.72817617
Element set:      73
Inclination:      097.9909 deg
RA of node:       224.6497 deg
Eccentricity:    0.0016291
Arg of perigee:   147.3355 deg
Mean anomaly:     212.8867 deg
Mean motion:   14.81403320 rev/day
Decay rate:       2.90e-06 rev/day^2
Epoch rev:             674
Checksum:              329

Satellite: SEEDS
Catalog number: 32791
Epoch time:      08164.79925942
Element set:      62
Inclination:      097.9934 deg
RA of node:       224.7148 deg
Eccentricity:    0.0016487
Arg of perigee:   145.5468 deg
Mean anomaly:     214.6806 deg
Mean motion:   14.81277713 rev/day
Decay rate:        1.9e-07 rev/day^2
Epoch rev:             672
Checksum:              327

Satellite: CANX-2
Catalog number: 32797
Epoch time:      08163.10790743
Element set:      27
Inclination:      097.9937 deg
RA of node:       223.0604 deg
Eccentricity:    0.0018095
Arg of perigee:   155.5662 deg
Mean anomaly:     241.6189 deg
Mean motion:   14.81708995 rev/day
Decay rate:      2.234e-05 rev/day^2
Epoch rev:             518
Checksum:              319

/EX





More information about the Keps mailing list